Vertical_Velocity
4 0 1 -2 2 3 3 -7 -5 0 -1 -1 -1 3 0 -8 -2 6 -4 1 -2 -1 -1 -1 -1 -1 -1 -0 1 -1 1 1 0 0 -1 0 -1 0 0 -1 -2 1 -1
4 2 3 -0 0 1 -1 1 -2 1 -2 10 7 -0 -2 -7 2 8 -4 -1 1 0 -0 -2 0 -1 -1 0 0 1 2 1 1 -1 1 -0 -0 -1 -1 -0 -2 1 1
1 2 2 1 3 -1 1 1 2 4 5 11 3 -2 1 1 -8 12 -4 -1 2 1 1 0 1 -1 -1 -2 -1 0 2 1 1 -2 -2 -1 -1 -1 -1 -1 -1 0 1
-1 -0 0 0 -3 1 -1 0 1 -1 5 9 -3 -2 3 -0 -4 6 -2 3 1 -2 1 0 0 -1 -1 0 0 -0 -2 -1 1 1 1 0 -1 -1 -1 -0 1 0 0
-2 -3 -2 1 -4 0 1 1 5 5 11 3 0 -3 3 -2 -2 -2 -1 -1 4 -3 -0 0 1 1 -1 -0 0 -0 1 -1 -1 0 0 0 -0 1 -1 -1 -1 -1 1
-2 2 -1 -1 -1 -0 -0 2 12 9 9 6 -1 0 -2 -1 -2 -1 4 -3 3 2 2 1 1 -1 -0 -0 1 1 -1 -1 -0 1 1 0 -0 1 0 -0 -1 -1 1
0 2 2 -0 -1 -2 0 -0 -1 5 11 1 -4 4 0 1 -1 3 4 0 -0 1 2 0 0 -1 -1 -0 1 -0 -1 -0 0 0 -0 1 0 0 0 1 -1 4 0
-0 -1 1 1 -2 -2 -0 2 2 3 6 -5 2 3 -2 0 0 2 -0 1 3 -2 3 -2 -0 0 -1 -1 0 1 1 0 -0 0 -0 0 1 0 1 -0 2 2 -1
0 1 0 -0 -0 -4 3 5 2 -0 9 -3 5 1 -0 4 -1 -2 1 0 1 -1 -1 2 -1 -1 -1 1 0 1 -1 -1 0 1 0 0 1 0 -0 -0 1 1 2
0 1 -1 -0 0 -2 -1 5 -0 -2 8 2 1 1 7 1 1 0 2 -0 -0 -0 1 -1 -1 1 2 0 -3 1 -1 1 0 -0 0 -0 -1 -1 -0 -0 -0 2 1
-3 -0 1 0 -2 -3 9 3 -1 2 6 8 1 3 3 2 -3 -0 1 2 3 2 -0 -1 -2 0 1 1 5 -1 -2 1 -1 0 2 2 2 0 1 1 1 2 0
-3 -3 0 1 -0 1 6 2 5 2 -1 1 1 7 0 -2 -1 1 1 1 0 2 -1 1 1 -1 -1 -0 -3 -3 -2 -5 -2 1 1 0 2 3 3 2 1 2 2
-2 -5 1 -0 1 3 -2 3 2 4 9 2 3 2 2 -0 0 2 -1 1 1 -3 1 0 -3 -1 -1 0 -0 -2 -3 -1 -1 -1 -1 -0 1 0 -0 1 1 2 3
0 -3 -2 3 0 1 3 -1 7 5 1 -0 3 -0 0 -1 3 3 -1 -0 0 0 0 -3 -0 -2 -1 3 2 -0 2 1 1 -1 -0 1 1 -1 1 3 3 2 2
-0 -1 -2 -1 6 3 3 4 5 5 1 5 1 -1 1 0 3 -0 -1 -3 -3 -2 1 -4 4 -1 -0 2 0 2 5 -0 -1 -1 -1 0 2 2 2 1 1 -0 3
-0 -1 -0 -1 1 -1 3 -1 -0 2 4 2 1 4 1 4 2 -1 -1 -1 -3 -4 1 -5 -1 -2 2 2 0 -0 2 3 3 3 2 0 2 1 0 -1 -1 -1 -2
-1 2 2 0 -1 3 1 5 6 6 7 4 1 3 5 3 3 1 -0 -0 -1 -5 2 -4 0 -3 2 2 -0 0 -0 -0 -1 -2 0 3 0 -1 1 -1 -2 -1 -1
-1 -2 -0 -2 -1 0 0 6 2 -3 5 0 4 8 5 4 6 7 1 -1 -1 -4 -1 3 -3 1 1 -4 -1 -0 -2 -2 0 -0 3 2 -1 -1 -2 -2 -2 0 1
1 -1 1 2 1 -2 -1 -1 -3 3 15 0 0 -1 -2 1 0 -2 -3 -0 1 -1 1 5 3 -0 1 -2 1 2 2 2 0 1 1 0 -3 -2 -5 -2 4 -1 -1
-0 0 3 0 0 1 1 1 -1 -1 -1 -2 -3 -2 -3 -1 -2 -1 -0 0 -0 -0 -1 3 4 1 2 -5 2 3 4 -2 4 -1 4 -8 -4 3 0 -0 2 4 2
0 3 1 -1 -0 -1 1 1 -1 -1 0 0 -1 0 3 3 -0 -1 -1 0 0 -0 -1 -1 4 0 2 1 -2 1 -1 -0 -5 0 1 3 -3 1 -2 -2 -1 0 1
0 1 0 -0 -2 -2 -1 0 -1 1 -1 -2 -2 -3 1 1 0 -6 2 2 -1 -0 -1 -0 -1 -1 1 -1 -2 -3 -4 -0 1 3 6 7 -3 6 -7 -5 3 5 4
1 1 2 1 -0 -2 -1 -1 -1 -1 -1 -1 -0 1 2 2 1 -7 4 -1 -1 -1 -1 -2 -2 -2 0 2 6 5 0 2 -6 1 -3 3 -1 -3 4 -3 0 -0 4
3 2 0 2 -0 -0 2 0 0 1 1 1 1 1 2 2 2 -4 -2 -3 -2 -1 1 -0 -1 -0 -0 0 1 0 1 0 -9 -6 2 -9 4 -3 -2 -4 -3 -4 -2
4 -3 -0 0 -1 -1 2 -0 -1 -0 2 1 1 2 0 1 2 0 -2 -2 -1 -1 2 -0 -1 -1 1 -0 1 1 1 2 0 -1 -2 -1 1 1 1 -1 -4 -3 -3
-1 -4 3 -4 -0 -0 1 1 0 2 0 -1 1 2 2 2 1 -0 2 0 -0 -2 -2 1 1 -0 -0 -1 -0 3 1 -0 1 1 -1 2 -1 -0 1 2 -0 -1 -3
Height
5755 5757 5758 5759 5760 5761 5762 5761 5765 5770 5773 5776 5777 5781 5784 5782 5792 5798 5799 5803 5806 5808 5809 5812 5815 5816 5818 5819 5821 5822 5824 5825 5826 5827 5828 5828 5830 5830 5832 5832 5833 5834 5835
5750 5751 5754 5754 5755 5756 5757 5759 5761 5764 5767 5771 5774 5777 5779 5779 5790 5792 5794 5799 5802 5805 5807 5809 5811 5812 5814 5816 5817 5819 5821 5822 5822 5823 5824 5825 5826 5827 5829 5829 5830 5830 5830
5744 5745 5748 5750 5751 5752 5753 5754 5756 5758 5761 5766 5770 5774 5776 5779 5780 5790 5789 5795 5798 5801 5804 5805 5806 5807 5810 5811 5814 5815 5817 5819 5820 5820 5821 5822 5823 5823 5824 5825 5826 5826 5825
5738 5739 5742 5743 5745 5747 5748 5749 5751 5754 5756 5761 5765 5770 5773 5774 5776 5784 5786 5792 5795 5798 5800 5800 5802 5803 5804 5807 5810 5811 5813 5815 5816 5816 5817 5817 5818 5818 5819 5820 5820 5820 5820
5732 5733 5735 5737 5737 5740 5741 5742 5744 5748 5751 5755 5761 5764 5768 5769 5772 5778 5784 5787 5791 5793 5795 5796 5798 5799 5800 5802 5804 5806 5808 5809 5810 5811 5812 5812 5813 5813 5813 5814 5814 5813 5814
5725 5728 5729 5730 5731 5734 5736 5737 5740 5743 5746 5750 5755 5759 5763 5766 5768 5773 5780 5781 5785 5788 5790 5790 5793 5794 5795 5798 5800 5802 5803 5804 5805 5805 5806 5806 5807 5807 5807 5806 5806 5806 5806
5720 5720 5722 5724 5726 5728 5730 5732 5734 5738 5741 5745 5750 5756 5759 5762 5765 5769 5775 5777 5779 5782 5785 5785 5787 5789 5791 5792 5795 5796 5797 5798 5798 5799 5799 5800 5800 5800 5800 5800 5798 5798 5798
5713 5712 5714 5716 5718 5722 5724 5728 5730 5734 5737 5741 5747 5750 5754 5758 5762 5765 5768 5770 5773 5776 5779 5779 5781 5784 5785 5787 5789 5790 5791 5792 5792 5792 5793 5794 5793 5793 5793 5792 5791 5791 5789
5706 5706 5707 5709 5711 5714 5719 5722 5725 5729 5732 5735 5742 5745 5749 5753 5754 5758 5761 5763 5766 5768 5771 5774 5775 5778 5779 5781 5782 5783 5785 5786 5786 5786 5786 5786 5786 5786 5785 5784 5782 5782 5782
5700 5700 5700 5702 5704 5708 5711 5715 5719 5723 5727 5731 5736 5740 5743 5747 5750 5752 5755 5758 5760 5763 5766 5768 5770 5771 5774 5776 5776 5777 5777 5777 5777 5778 5778 5779 5778 5777 5776 5775 5774 5773 5772
5695 5694 5694 5696 5697 5700 5704 5709 5713 5718 5721 5726 5730 5734 5737 5741 5743 5747 5750 5752 5757 5758 5760 5762 5765 5766 5767 5768 5770 5769 5769 5770 5769 5770 5770 5769 5768 5767 5766 5765 5764 5763 5763
5691 5687 5687 5688 5691 5694 5697 5704 5709 5713 5716 5721 5725 5730 5732 5734 5738 5742 5744 5748 5751 5752 5754 5757 5758 5759 5759 5760 5760 5761 5762 5761 5761 5761 5760 5759 5759 5758 5757 5756 5756 5755 5754
5687 5686 5683 5683 5684 5689 5695 5700 5704 5708 5712 5717 5721 5725 5727 5730 5733 5736 5739 5743 5745 5745 5747 5749 5750 5751 5752 5752 5753 5753 5753 5754 5754 5753 5752 5751 5749 5748 5748 5747 5746 5746 5746
5686 5685 5682 5680 5681 5685 5690 5694 5700 5704 5708 5711 5716 5720 5723 5726 5728 5731 5733 5737 5738 5740 5740 5742 5743 5744 5744 5746 5747 5746 5746 5747 5746 5746 5743 5742 5741 5740 5739 5738 5738 5738 5739
5684 5683 5682 5679 5680 5682 5686 5691 5695 5700 5704 5708 5711 5715 5718 5721 5724 5726 5729 5729 5731 5732 5734 5735 5737 5737 5737 5738 5739 5739 5739 5739 5738 5736 5735 5735 5734 5733 5732 5731 5731 5731 5732
5681 5680 5680 5679 5679 5680 5683 5687 5692 5696 5700 5703 5707 5711 5714 5716 5719 5721 5722 5723 5723 5725 5727 5728 5729 5730 5729 5729 5730 5731 5731 5732 5730 5729 5729 5728 5728 5727 5726 5725 5724 5723 5722
5679 5679 5678 5678 5678 5680 5682 5686 5689 5692 5697 5700 5703 5706 5709 5711 5713 5715 5716 5717 5718 5719 5720 5721 5721 5720 5721 5722 5722 5722 5723 5723 5722 5722 5722 5722 5721 5720 5719 5716 5715 5713 5714
5676 5677 5676 5677 5678 5679 5679 5683 5686 5689 5692 5694 5697 5700 5702 5704 5707 5708 5709 5710 5711 5711 5713 5714 5713 5714 5714 5714 5714 5714 5713 5713 5715 5715 5714 5713 5712 5710 5708 5707 5705 5706 5706
5673 5674 5675 5675 5677 5678 5680 5681 5683 5686 5688 5689 5692 5694 5696 5697 5699 5700 5702 5703 5704 5704 5704 5705 5708 5706 5707 5707 5706 5706 5705 5705 5704 5704 5703 5703 5702 5698 5696 5695 5696 5694 5693
5669 5671 5673 5674 5674 5676 5677 5679 5680 5682 5683 5685 5688 5690 5691 5692 5694 5695 5697 5697 5697 5697 5697 5699 5701 5700 5700 5700 5698 5699 5698 5696 5696 5694 5693 5689 5687 5688 5686 5684 5683 5681 5678
5665 5667 5669 5670 5670 5671 5672 5674 5676 5677 5679 5681 5682 5683 5685 5687 5687 5688 5689 5689 5689 5689 5690 5690 5691 5692 5691 5690 5689 5688 5686 5686 5684 5683 5681 5677 5674 5673 5672 5671 5669 5667 5665
5659 5661 5663 5665 5666 5667 5668 5669 5670 5672 5673 5674 5676 5677 5679 5679 5679 5679 5680 5681 5681 5681 5681 5680 5680 5680 5681 5680 5679 5677 5675 5673 5672 5670 5668 5665 5662 5660 5656 5654 5652 5649 5647
5652 5654 5656 5657 5659 5660 5661 5662 5663 5664 5665 5667 5668 5668 5669 5670 5670 5670 5670 5671 5671 5671 5670 5669 5668 5666 5665 5664 5663 5662 5661 5659 5657 5656 5653 5651 5648 5645 5642 5639 5636 5633 5629
5645 5646 5647 5649 5651 5652 5652 5653 5654 5655 5656 5657 5658 5659 5660 5661 5661 5660 5660 5660 5659 5659 5659 5658 5656 5655 5653 5652 5650 5648 5645 5642 5639 5637 5635 5632 5629 5626 5624 5620 5617 5613 5609
5636 5636 5638 5640 5642 5643 5644 5644 5645 5646 5647 5648 5649 5649 5650 5650 5650 5651 5650 5649 5648 5648 5647 5645 5644 5642 5640 5638 5635 5632 5628 5626 5622 5620 5616 5613 5610 5606 5603 5598 5594 5590 5587
5626 5626 5624 5627 5631 5633 5634 5635 5635 5636 5636 5636 5637 5638 5638 5638 5637 5637 5636 5635 5634 5633 5632 5631 5629 5627 5624 5621 5619 5615 5612 5608 5605 5602 5598 5594 5589 5585 5583 5577 5572 5566 5562